| time (UTC) | temp F | wind direction | speed knots | gust knots | rain 1hr in | rain 24hr in | rain mn in | humidity % | barometer mb |
| 20260505200915 | 66 | 319 | 0.9 | 5.2 | 0.00 | 0.00 | 0.00 | ||
| 20260505200402 | 65 | 332 | 0.0 | 7.8 | 0.00 | 0.00 | 0.00 | ||
| 20260505195849 | 65 | 322 | 1.7 | 4.3 | 0.00 | 0.00 | 0.00 | ||
| 20260505195336 | 64 | 320 | 0.0 | 10.4 | 0.00 | 0.00 | 0.00 | ||
| 20260505194823 | 65 | 339 | 0.0 | 0.0 | 0.00 | 0.00 | 0.00 | ||
| 20260505194310 | 65 | 330 | 5.2 | 15.6 | 0.00 | 0.00 | 0.00 | ||
| 20260505193758 | 65 | 325 | 0.0 | 3.5 | 0.00 | 0.00 | 0.00 | ||
| 20260505193245 | 66 | 317 | 0.0 | 2.6 | 0.00 | 0.00 | 0.00 | ||
| 20260505192219 | 67 | 332 | 0.0 | 8.7 | 0.00 | 0.00 | 0.00 | ||
| 20260505191706 | 67 | 322 | 0.0 | 0.0 | 0.00 | 0.00 | 0.00 | ||
| 20260505191154 | 66 | 329 | 0.0 | 0.9 | 0.00 | 0.00 | 0.00 | ||
| 20260505190641 | 66 | 315 | 0.0 | 6.1 | 0.00 | 0.00 | 0.00 | ||
| 20260505185615 | 65 | 324 | 0.0 | 9.6 | 0.00 | 0.00 | 0.00 | ||
| 20260505185102 | 66 | 327 | 0.0 | 7.8 | 0.00 | 0.00 | 0.00 | ||
| 20260505184549 | 65 | 333 | 0.0 | 4.3 | 0.00 | 0.00 | 0.00 | ||
| 20260505184036 | 65 | 334 | 0.0 | 6.1 | 0.00 | 0.00 | 0.00 | ||
| 20260505183524 | 65 | 310 | 0.0 | 9.6 | 0.00 | 0.00 | 0.00 | ||
| 20260505183011 | 65 | 316 | 0.0 | 3.5 | 0.00 | 0.00 | 0.00 | ||
| 20260505182458 | 64 | 323 | 0.0 | 0.0 | 0.00 | 0.00 | 0.00 | ||
| 20260505181945 | 64 | 317 | 0.0 | 4.3 | 0.00 | 0.00 | 0.00 | ||
| 20260505181432 | 64 | 325 | 0.0 | 0.9 | 0.00 | 0.00 | 0.00 | ||
| 20260505180919 | 63 | 315 | 0.0 | 7.8 | 0.00 | 0.00 | 0.00 | ||
| 20260505180407 | 64 | 333 | 2.6 | 5.2 | 0.00 | 0.00 | 0.00 | ||
| 20260505175854 | 63 | 318 | 2.6 | 5.2 | 0.00 | 0.00 | 0.00 | ||
| 20260505175341 | 64 | 320 | 0.0 | 4.3 | 0.00 | 0.00 | 0.00 | ||
| 20260505174828 | 64 | 308 | 0.0 | 0.9 | 0.00 | 0.00 | 0.00 | ||
| 20260505174315 | 63 | 320 | 0.0 | 6.1 | 0.00 | 0.00 | 0.00 | ||
| 20260505173802 | 64 | 320 | 0.0 | 2.6 | 0.00 | 0.00 | 0.00 | ||
| 20260505173249 | 64 | 296 | 0.0 | 2.6 | 0.00 | 0.00 | 0.00 | ||
| 20260505172737 | 65 | 315 | 0.0 | 0.0 | 0.00 | 0.00 | 0.00 | ||
| 20260505172225 | 65 | 318 | 0.0 | 1.7 | 0.00 | 0.00 | 0.00 | ||
| 20260505171711 | 65 | 337 | 2.6 | 4.3 | 0.00 | 0.00 | 0.00 | ||
| 20260505171158 | 65 | 306 | 0.0 | 0.0 | 0.00 | 0.00 | 0.00 | ||
| 20260505170645 | 64 | 320 | 0.0 | 0.0 | 0.00 | 0.00 | 0.00 | ||
| 20260505170133 | 64 | 316 | 0.0 | 0.0 | 0.00 | 0.00 | 0.00 | ||
| 20260505165620 | 64 | 333 | 0.0 | 0.0 | 0.00 | 0.00 | 0.00 | ||
| 20260505165107 | 64 | 325 | 0.0 | 0.0 | 0.00 | 0.00 | 0.00 | ||
| 20260505164554 | 64 | 321 | 0.0 | 2.6 | 0.00 | 0.00 | 0.00 | ||
| 20260505163528 | 63 | 323 | 0.0 | 6.1 | 0.00 | 0.00 | 0.00 | ||
| 20260505163015 | 64 | 316 | 0.9 | 1.7 | 0.00 | 0.00 | 0.00 | ||
| 20260505162502 | 64 | 328 | 0.0 | 4.3 | 0.00 | 0.00 | 0.00 | ||
| 20260505161950 | 65 | 327 | 0.0 | 0.9 | 0.00 | 0.00 | 0.00 | ||
| 20260505161437 | 66 | 299 | 0.0 | 0.9 | 0.00 | 0.00 | 0.00 | ||
| 20260505160924 | 67 | 309 | 0.0 | 0.0 | 0.00 | 0.00 | 0.00 | ||
| 20260505160411 | 67 | 331 | 0.0 | 0.0 | 0.00 | 0.00 | 0.00 | ||
| 20260505152741 | 61 | 318 | 0.0 | 0.0 | 0.00 | 0.00 | 0.00 | ||
| 20260505152228 | 60 | 310 | 0.0 | 0.0 | 0.00 | 0.00 | 0.00 | ||
| 20260505151715 | 59 | 279 | 0.0 | 0.0 | 0.00 | 0.00 | 0.00 | ||
| 20260505151203 | 59 | 300 | 0.0 | 0.0 | 0.00 | 0.00 | 0.00 | ||
| 20260505150652 | 58 | 0 | 0.0 | 0.0 | 0.00 | 0.00 | 0.00 | ||
| 20260505150137 | 58 | 337 | 0.0 | 0.0 | 0.00 | 0.00 | 0.00 | ||
| 20260505140416 | 39 | 337 | 0.0 | 0.0 | 0.00 | 0.00 | 0.00 | ||
| 20260505130142 | 38 | 348 | 0.0 | 0.0 | 0.00 | 0.00 | 0.00 | ||
| 20260505124603 | 38 | 135 | 0.0 | 0.0 | 0.00 | 0.00 | 0.00 | ||
| 20260505123539 | 37 | 337 | 0.0 | 0.0 | 0.00 | 0.00 | 0.00 | ||
| 20260505123025 | 37 | 337 | 0.0 | 0.0 | 0.00 | 0.00 | 0.00 | ||
| 20260505122513 | 37 | 337 | 0.0 | 0.0 | 0.00 | 0.00 | 0.00 | ||
| 20260505122001 | 37 | 114 | 0.0 | 0.0 | 0.00 | 0.00 | 0.00 | ||
| 20260505121447 | 37 | 337 | 0.0 | 0.0 | 0.00 | 0.00 | 0.00 | ||
| 20260505120933 | 36 | 247 | 0.0 | 0.0 | 0.00 | 0.00 | 0.00 | ||
| 20260505120421 | 36 | 337 | 0.0 | 0.0 | 0.00 | 0.00 | 0.00 | ||
| 20260505115908 | 36 | 337 | 0.0 | 0.0 | 0.00 | 0.00 | 0.00 | ||
| 20260505115356 | 37 | 50 | 0.0 | 0.0 | 0.00 | 0.00 | 0.00 | ||
| 20260505114843 | 37 | 40 | 0.0 | 0.0 | 0.00 | 0.00 | 0.00 | ||
| 20260505113817 | 37 | 348 | 0.0 | 0.0 | 0.00 | 0.00 | 0.00 | ||
| 20260505113305 | 37 | 300 | 0.0 | 0.0 | 0.00 | 0.00 | 0.00 | ||
| 20260505112751 | 37 | 337 | 0.0 | 0.0 | 0.00 | 0.00 | 0.00 | ||
| 20260505112238 | 37 | 307 | 0.0 | 0.0 | 0.00 | 0.00 | 0.00 | ||
| 20260505111726 | 37 | 320 | 0.0 | 0.0 | 0.00 | 0.00 | 0.00 | ||
| 20260505111212 | 38 | 337 | 0.0 | 0.0 | 0.00 | 0.00 | 0.00 | ||
| 20260505110146 | 38 | 116 | 0.0 | 0.0 | 0.00 | 0.00 | 0.00 | ||
| 20260505102004 | 38 | 33 | 0.0 | 0.0 | 0.00 | 0.00 | 0.00 | ||
| 20260505101451 | 39 | 84 | 0.0 | 0.0 | 0.00 | 0.00 | 0.00 | ||
| 20260505100938 | 39 | 241 | 0.0 | 0.0 | 0.00 | 0.00 | 0.00 | ||
| 20260505100425 | 39 | 326 | 0.0 | 0.0 | 0.00 | 0.00 | 0.00 | ||
| 20260505095912 | 39 | 202 | 0.0 | 0.0 | 0.00 | 0.00 | 0.00 | ||
| 20260505095400 | 39 | 348 | 0.0 | 0.0 | 0.00 | 0.00 | 0.00 | ||
| 20260505094847 | 39 | 0 | 0.0 | 0.0 | 0.00 | 0.00 | 0.00 | ||
| 20260505094334 | 39 | 337 | 0.0 | 0.0 | 0.00 | 0.00 | 0.00 | ||
| 20260505093821 | 39 | 292 | 0.0 | 0.0 | 0.00 | 0.00 | 0.00 | ||
| 20260505093308 | 39 | 258 | 0.0 | 0.0 | 0.00 | 0.00 | 0.00 | ||
| 20260505092755 | 40 | 225 | 0.0 | 0.0 | 0.00 | 0.00 | 0.00 | ||
| 20260505092242 | 40 | 292 | 0.0 | 0.0 | 0.00 | 0.00 | 0.00 | ||
| 20260505091729 | 40 | 0 | 0.0 | 0.0 | 0.00 | 0.00 | 0.00 | ||
| 20260505091216 | 40 | 337 | 0.0 | 0.0 | 0.00 | 0.00 | 0.00 | ||
| 20260505090704 | 40 | 61 | 0.0 | 0.0 | 0.00 | 0.00 | 0.00 | ||
| 20260505090151 | 40 | 315 | 0.0 | 0.0 | 0.00 | 0.00 | 0.00 | ||
| 20260505085125 | 41 | 45 | 0.0 | 0.0 | 0.00 | 0.00 | 0.00 | ||
| 20260505084613 | 41 | 322 | 0.0 | 0.0 | 0.00 | 0.00 | 0.00 | ||
| 20260505084100 | 41 | 337 | 0.0 | 0.0 | 0.00 | 0.00 | 0.00 | ||
| 20260505083547 | 41 | 157 | 0.0 | 0.0 | 0.00 | 0.00 | 0.00 | ||
| 20260505083034 | 42 | 337 | 0.0 | 0.0 | 0.00 | 0.00 | 0.00 | ||
| 20260505082521 | 42 | 337 | 0.0 | 0.0 | 0.00 | 0.00 | 0.00 | ||
| 20260505082008 | 42 | 136 | 0.0 | 0.0 | 0.00 | 0.00 | 0.00 | ||
| 20260505081455 | 42 | 337 | 0.0 | 0.0 | 0.00 | 0.00 | 0.00 | ||
| 20260505080942 | 42 | 337 | 0.0 | 0.0 | 0.00 | 0.00 | 0.00 | ||
| 20260505080429 | 43 | 326 | 0.0 | 0.0 | 0.00 | 0.00 | 0.00 | ||
| 20260505075917 | 43 | 61 | 0.0 | 0.0 | 0.00 | 0.00 | 0.00 | ||
| 20260505075404 | 43 | 337 | 0.0 | 0.0 | 0.00 | 0.00 | 0.00 | ||
| 20260505074851 | 43 | 337 | 0.0 | 0.0 | 0.00 | 0.00 | 0.00 | ||
| 20260505074338 | 43 | 337 | 0.0 | 0.0 | 0.00 | 0.00 | 0.00 | ||
| 20260505073825 | 43 | 116 | 0.0 | 0.0 | 0.00 | 0.00 | 0.00 | ||
| 20260505073312 | 43 | 90 | 0.0 | 0.0 | 0.00 | 0.00 | 0.00 | ||
| 20260505072800 | 43 | 213 | 0.0 | 0.0 | 0.00 | 0.00 | 0.00 | ||
| 20260505072247 | 43 | 139 | 0.0 | 0.0 | 0.00 | 0.00 | 0.00 | ||
| 20260505071221 | 43 | 153 | 0.0 | 0.0 | 0.00 | 0.00 | 0.00 | ||
| 20260505070708 | 43 | 337 | 0.0 | 0.0 | 0.00 | 0.00 | 0.00 | ||
| 20260505070155 | 44 | 337 | 0.0 | 0.0 | 0.00 | 0.00 | 0.00 | ||
| 20260505065643 | 44 | 121 | 0.0 | 0.0 | 0.00 | 0.00 | 0.00 | ||
| 20260505065131 | 44 | 292 | 0.0 | 0.0 | 0.00 | 0.00 | 0.00 | ||
| 20260505064617 | 44 | 225 | 0.0 | 0.0 | 0.00 | 0.00 | 0.00 | ||
| 20260505064104 | 44 | 320 | 0.0 | 0.0 | 0.00 | 0.00 | 0.00 | ||
| 20260505063551 | 44 | 133 | 0.0 | 0.0 | 0.00 | 0.00 | 0.00 | ||
| 20260505063038 | 44 | 60 | 0.0 | 0.0 | 0.00 | 0.00 | 0.00 | ||
| 20260505062526 | 44 | 100 | 0.0 | 0.0 | 0.00 | 0.00 | 0.00 | ||
| 20260505062013 | 44 | 99 | 0.0 | 0.0 | 0.00 | 0.00 | 0.00 | ||
| 20260505061500 | 44 | 337 | 0.0 | 0.0 | 0.00 | 0.00 | 0.00 | ||
| 20260505060947 | 44 | 123 | 0.0 | 0.0 | 0.00 | 0.00 | 0.00 | ||
| 20260505060434 | 44 | 337 | 0.0 | 0.0 | 0.00 | 0.00 | 0.00 | ||
| 20260505055921 | 44 | 337 | 0.0 | 0.0 | 0.00 | 0.00 | 0.00 | ||
| 20260505055408 | 44 | 165 | 0.0 | 0.0 | 0.00 | 0.00 | 0.00 | ||
| 20260505054855 | 44 | 159 | 0.0 | 0.0 | 0.00 | 0.00 | 0.00 | ||
| 20260505054343 | 44 | 247 | 0.0 | 0.0 | 0.00 | 0.00 | 0.00 | ||
| 20260505053830 | 44 | 67 | 0.0 | 0.0 | 0.00 | 0.00 | 0.00 | ||
| 20260505053317 | 44 | 33 | 0.0 | 0.0 | 0.00 | 0.00 | 0.00 | ||
| 20260505052804 | 44 | 122 | 0.0 | 0.0 | 0.00 | 0.00 | 0.00 | ||
| 20260505052251 | 45 | 155 | 0.0 | 0.0 | 0.00 | 0.00 | 0.00 | ||
| 20260505051739 | 44 | 337 | 0.0 | 0.0 | 0.00 | 0.00 | 0.00 | ||
| 20260505051226 | 45 | 202 | 0.0 | 0.0 | 0.00 | 0.00 | 0.00 | ||
| 20260505050713 | 45 | 337 | 0.0 | 0.0 | 0.00 | 0.00 | 0.00 | ||
| 20260505050200 | 45 | 337 | 0.0 | 0.0 | 0.00 | 0.00 | 0.00 | ||
| 20260505040951 | 45 | 99 | 0.0 | 0.0 | 0.00 | 0.00 | 0.00 | ||
| 20260505040438 | 45 | 90 | 0.0 | 0.0 | 0.00 | 0.00 | 0.00 | ||
| 20260505035926 | 45 | 120 | 0.0 | 0.0 | 0.00 | 0.00 | 0.00 | ||
| 20260505035413 | 45 | 90 | 0.0 | 0.0 | 0.00 | 0.00 | 0.00 | ||
| 20260505034900 | 45 | 61 | 0.0 | 0.0 | 0.00 | 0.00 | 0.00 | ||
| 20260505034347 | 45 | 337 | 0.0 | 0.0 | 0.00 | 0.00 | 0.00 | ||
| 20260505033834 | 45 | 337 | 0.0 | 0.0 | 0.00 | 0.00 | 0.00 | ||
| 20260505032809 | 45 | 140 | 0.0 | 0.0 | 0.00 | 0.00 | 0.00 | ||
| 20260505031743 | 45 | 337 | 0.0 | 0.0 | 0.00 | 0.00 | 0.00 | ||
| 20260505031230 | 45 | 187 | 0.0 | 0.0 | 0.00 | 0.00 | 0.00 | ||
| 20260505030717 | 45 | 45 | 0.0 | 0.0 | 0.00 | 0.00 | 0.00 | ||
| 20260505030204 | 45 | 48 | 0.0 | 0.0 | 0.00 | 0.00 | 0.00 | ||
| 20260505025652 | 45 | 331 | 0.0 | 0.0 | 0.00 | 0.00 | 0.00 | ||
| 20260505025139 | 45 | 315 | 0.0 | 0.0 | 0.00 | 0.00 | 0.00 | ||
| 20260505024626 | 46 | 45 | 0.0 | 0.0 | 0.00 | 0.00 | 0.00 | ||
| 20260505024113 | 46 | 211 | 0.0 | 0.0 | 0.00 | 0.00 | 0.00 | ||
| 20260505023600 | 47 | 337 | 0.0 | 0.0 | 0.00 | 0.00 | 0.00 | ||
| 20260505023047 | 48 | 144 | 0.0 | 0.0 | 0.00 | 0.00 | 0.00 | ||
| 20260505022535 | 48 | 332 | 0.0 | 0.0 | 0.00 | 0.00 | 0.00 | ||
| 20260505022022 | 49 | 325 | 0.0 | 0.0 | 0.00 | 0.00 | 0.00 | ||
| 20260505021509 | 49 | 320 | 0.0 | 0.0 | 0.00 | 0.00 | 0.00 | ||
| 20260505020956 | 50 | 325 | 0.0 | 0.0 | 0.00 | 0.00 | 0.00 | ||
| 20260505020443 | 50 | 18 | 0.0 | 0.0 | 0.00 | 0.00 | 0.00 | ||
| 20260505015930 | 50 | 315 | 0.0 | 0.0 | 0.00 | 0.00 | 0.00 | ||
| 20260505015417 | 50 | 142 | 0.0 | 0.0 | 0.00 | 0.00 | 0.00 | ||
| 20260505014904 | 50 | 40 | 0.0 | 0.0 | 0.00 | 0.00 | 0.00 | ||
| 20260505014352 | 51 | 337 | 0.0 | 0.0 | 0.00 | 0.00 | 0.00 | ||
| 20260505013839 | 51 | 121 | 0.0 | 0.0 | 0.00 | 0.00 | 0.00 | ||
| 20260505013326 | 51 | 189 | 0.0 | 0.0 | 0.00 | 0.00 | 0.00 | ||
| 20260505012813 | 51 | 115 | 0.0 | 0.0 | 0.00 | 0.00 | 0.00 | ||
| 20260505012300 | 52 | 350 | 0.0 | 0.0 | 0.00 | 0.00 | 0.00 | ||
| 20260505011235 | 52 | 220 | 0.0 | 0.0 | 0.00 | 0.00 | 0.00 | ||
| 20260505010723 | 52 | 281 | 0.0 | 0.0 | 0.00 | 0.00 | 0.00 | ||
| 20260505010209 | 52 | 22 | 0.0 | 0.0 | 0.00 | 0.00 | 0.00 | ||
| 20260505005656 | 53 | 180 | 0.0 | 0.0 | 0.00 | 0.00 | 0.00 | ||
| 20260505005143 | 53 | 136 | 0.0 | 0.0 | 0.00 | 0.00 | 0.00 | ||
| 20260505004630 | 53 | 60 | 0.0 | 0.0 | 0.00 | 0.00 | 0.00 | ||
| 20260505004117 | 54 | 138 | 0.0 | 0.0 | 0.00 | 0.00 | 0.00 | ||
| 20260505003605 | 54 | 154 | 0.0 | 0.0 | 0.00 | 0.00 | 0.00 | ||
| 20260505003052 | 54 | 158 | 0.0 | 0.0 | 0.00 | 0.00 | 0.00 | ||
| 20260505002539 | 53 | 136 | 0.0 | 0.0 | 0.00 | 0.00 | 0.00 | ||
| 20260505002026 | 54 | 170 | 0.0 | 0.0 | 0.00 | 0.00 | 0.00 | ||
| 20260505001513 | 55 | 150 | 0.0 | 0.0 | 0.00 | 0.00 | 0.00 | ||
| 20260505001001 | 56 | 333 | 0.0 | 0.0 | 0.00 | 0.00 | 0.00 | ||
| 20260505000448 | 56 | 120 | 0.0 | 0.0 | 0.00 | 0.00 | 0.00 | ||
| 20260504235935 | 57 | 150 | 0.0 | 0.0 | 0.00 | 0.00 | 0.00 | ||
| 20260504235422 | 58 | 175 | 0.0 | 0.0 | 0.00 | 0.00 | 0.00 | ||
| 20260504234909 | 58 | 152 | 0.0 | 0.0 | 0.00 | 0.00 | 0.00 | ||
| 20260504234356 | 58 | 180 | 0.0 | 1.7 | 0.00 | 0.00 | 0.00 | ||
| 20260504233843 | 59 | 151 | 0.0 | 0.0 | 0.00 | 0.00 | 0.00 | ||
| 20260504233330 | 59 | 148 | 0.0 | 0.9 | 0.00 | 0.00 | 0.00 | ||
| 20260504232818 | 60 | 142 | 0.0 | 5.2 | 0.00 | 0.00 | 0.00 | ||
| 20260504232306 | 60 | 132 | 0.0 | 3.5 | 0.00 | 0.00 | 0.00 | ||
| 20260504231752 | 61 | 156 | 0.0 | 0.0 | 0.00 | 0.00 | 0.00 | ||
| 20260504231239 | 62 | 156 | 0.0 | 0.0 | 0.00 | 0.00 | 0.00 | ||
| 20260504230726 | 63 | 154 | 0.0 | 0.0 | 0.00 | 0.00 | 0.00 | ||
| 20260504230214 | 63 | 150 | 0.0 | 0.0 | 0.00 | 0.00 | 0.00 | ||
| 20260504225700 | 62 | 172 | 0.0 | 0.9 | 0.00 | 0.00 | 0.00 | ||
| 20260504225148 | 62 | 144 | 0.0 | 0.0 | 0.00 | 0.00 | 0.00 | ||
| 20260504224635 | 63 | 159 | 0.0 | 0.0 | 0.00 | 0.00 | 0.00 | ||
| 20260504224122 | 64 | 155 | 0.0 | 0.0 | 0.00 | 0.00 | 0.00 | ||
| 20260504223609 | 64 | 167 | 0.0 | 1.7 | 0.00 | 0.00 | 0.00 | ||
| 20260504223056 | 64 | 155 | 0.0 | 3.5 | 0.00 | 0.00 | 0.00 | ||
| 20260504222543 | 64 | 159 | 0.0 | 1.7 | 0.00 | 0.00 | 0.00 | ||
| 20260504222031 | 64 | 173 | 0.0 | 0.0 | 0.00 | 0.00 | 0.00 | ||
| 20260504221518 | 63 | 150 | 0.0 | 2.6 | 0.00 | 0.00 | 0.00 | ||
| 20260504221005 | 63 | 145 | 0.0 | 0.0 | 0.00 | 0.00 | 0.00 | ||
| 20260504220452 | 63 | 148 | 0.0 | 0.0 | 0.00 | 0.00 | 0.00 | ||
| 20260504215939 | 63 | 158 | 0.0 | 0.9 | 0.00 | 0.00 | 0.00 | ||
| 20260504214913 | 66 | 142 | 0.0 | 1.7 | 0.00 | 0.00 | 0.00 | ||
| 20260504214401 | 66 | 146 | 0.0 | 0.0 | 0.00 | 0.00 | 0.00 | ||
| 20260504213848 | 66 | 136 | 0.0 | 3.5 | 0.00 | 0.00 | 0.00 | ||
| 20260504213335 | 66 | 144 | 0.0 | 1.7 | 0.00 | 0.00 | 0.00 | ||
| 20260504212822 | 66 | 152 | 0.0 | 2.6 | 0.00 | 0.00 | 0.00 | ||
| 20260504212309 | 65 | 161 | 0.0 | 0.0 | 0.00 | 0.00 | 0.00 | ||
| 20260504211757 | 64 | 169 | 0.0 | 0.0 | 0.00 | 0.00 | 0.00 | ||
| 20260504211244 | 64 | 177 | 0.0 | 0.0 | 0.00 | 0.00 | 0.00 | ||
| 20260504210731 | 64 | 162 | 0.0 | 0.0 | 0.00 | 0.00 | 0.00 | ||
| 20260504210218 | 63 | 160 | 0.0 | 0.0 | 0.00 | 0.00 | 0.00 | ||
| 20260504205705 | 61 | 132 | 0.0 | 0.0 | 0.00 | 0.00 | 0.00 | ||
| 20260504205152 | 61 | 337 | 0.0 | 0.0 | 0.00 | 0.00 | 0.00 | ||
| 20260504204639 | 62 | 137 | 0.0 | 0.0 | 0.00 | 0.00 | 0.00 | ||
| 20260504204126 | 62 | 157 | 0.0 | 0.0 | 0.00 | 0.00 | 0.00 | ||
| 20260504203614 | 62 | 157 | 0.0 | 0.0 | 0.00 | 0.00 | 0.00 | ||
| 20260504203101 | 61 | 236 | 0.0 | 0.0 | 0.00 | 0.00 | 0.00 | ||
| 20260504202548 | 59 | 199 | 0.0 | 0.0 | 0.00 | 0.00 | 0.00 | ||
| 20260504202035 | 58 | 160 | 0.0 | 0.0 | 0.00 | 0.00 | 0.00 | ||
| 20260504201522 | 58 | 197 | 0.0 | 0.0 | 0.00 | 0.00 | 0.00 |